THOR ABLESTAR DEB, 264

Orbit data source: Space-Track

THOR ABLESTAR DEB, 264 is space debris in LEO originally from a launch on Thu, 29 Jun 1961 UTC launched from the Air Force Eastern Test Range (AFETR). Debris objects in space refer to the collection of defunct objects orbiting the Earth. Examples of debris include non-operational satellites, rocket bodies, and fragments generated from explosions, collisions, or faulty payload assembly.

Loading next visibility...
THOR ABLESTAR DEB details
Identifier
264, 1961-015CL
Orbit
LEO
Last TLE update13 hours ago
Origin
Flag of USUSAF SSD (US)
ManufacturerUnknown
MissionSpacecraft
Bus & MotorUnknown
MassUnknown
Launch date (UTC)
1961-06-29 (64 years ago)
Launch vehicleUnknown
Launch site
Air Force Eastern Test Range (AFETR)
Object type
Payload
Rocket body
Debris
Shape & HBRUnknown
Radar Cross SectionMedium (>0.1 m² and <1 m²)

Expand to show TLE details & history

TLE from 13 hours ago
0 THOR ABLESTAR DEB
1 00264U 61015CL  25013.81659443  .00003584  00000-0  12701-2 0  9999
2 00264  66.5243 177.4593 0021670  16.4454 343.7343 14.35510235259008
Epoch: 2025-01-13T19:35Z
Definitive object data (Epoch: 2025-01-13T19:35:53.758Z)
Latitude-0.00009°
Longitude129.95306°
Altitude760.594 km
Speed7.482 km/s
True Right ascension11h 49m 50s
True Declination0° 00' 00"
Sunlit
Object was in daylight at TLE epoch
Visualization TLE readout
Latitude-54.9208°
Longitude90.54185°
Altitude790.8 km
Speed7.459 km/s
Apparent Right ascension21h 41m 23s
Apparent Declination-85° 31' 35"
Sunlit
Object is in daylight
Visualization observer readout
Local Sidereal Time09:16:48
Azimuth180.669° SSW
Elevation-44.362°
Doppler factor1
Orbital elements
Apogee altitude787.256 km
Perigee altitude756.269 km
Semi-major axis7,149.9 km
Eccentricity0.002167
Inclination66.5243°
RAAN177.4593°
Arg. of periapsis16.4454°
True anomaly343.66457°
Mean anomaly343.7343°
Eccentric anomaly343.69945°
Mean motion3.58999 °/min
BSTAR0.0012701
Orbital period100.28 mins
Loading maneuver chart data...

THOR ABLESTAR DEB Visibility forecast

Observer location: undefined°, undefined

Span
Click to sort rows by Start time (UTC) header in descending order
Start Az.
Max El. time (UTC)
Max El. Az.
Max El.
End time (UTC)
End Az.
8 mins2025-01-14 12:27:59.840Z208.537° SW2025-01-14 12:30:59.840Z211.716° SW44.039°2025-01-14 12:35:59.840Z29.153° NE
4 mins2025-01-14 14:13:59.840Z301.483° NW2025-01-14 14:14:59.840Z314.306° NW14.481°2025-01-14 14:17:59.840Z350.518° N
9 mins2025-01-14 21:13:59.840Z339.084° N2025-01-14 21:17:59.840Z58.265° ENE42.265°2025-01-14 21:22:59.840Z140.281° SSE
4 mins2025-01-14 22:58:59.840Z274.444° WNW2025-01-14 23:00:59.840Z248.277° W15.475°2025-01-14 23:02:59.840Z224.366° SW
|